SCP
0 0 0 0 0 0 0 0 0 0 0 0 0 0 0 0 0 0 0 0 0 0 0 0 0 0 0
0 0 0 0 0 0 0 0 0 0 0 0 0 0 0 0 0 0 0 0 0 0 0 0 0 0 0
0 0 0 0 0 0 0 0 0 0 0 0 0 0 0 0 0 0 0 0 0 0 0 0 0 0 0
0 0 0 0 0 0 0 0 0 0 0 0 0 0 0 0 0 0 0 0 0 0 0 0 0 0 0
0 0 0 0 0 0 0 0 0 0 0 0 0 0 0 0 0 0 0 0 0 0 0 0 0 0 0
0 0 0 0 0 0 0 0 0 0 0 0 0 0 0 0 0 0 0 0 0 0 0 0 0 0 0
0 0 0 0 0 0 0 0 0 0 0 0 0 0 0 0 0 0 0 0 0 0 0 0 0 0 0
0 0 0 0 0 -0 0 0 0 0 0 0 0 0 0 0 0 0 0 0 0 0 0 0 0 0 0
0 0 0 0 0 -0 0 0 0 0 0 0 0 0 0 0 0 0 0 0 0 0 0 0 0 0 0
0 0 0 0 0 0 -0 0 0 0 0 0 0 0 0 0 0 0 0 0 0 0 0 0 0 0 0
0 0 0 0 0 -0 -0 0 0 0 0 0 0 0 0 0 0 0 0 0 0 0 0 0 0 0 0
0 0 0 0 -0 -0 -0 0 0 0 0 0 0 0 0 0 0 0 0 0 0 0 0 0 0 0 0
0 0 0 0 0 -0 0 0 0 0 0 0 0 0 0 0 0 0 0 0 0 0 0 0 0 0 0
0 0 0 0 0 0 0 0 0 0 0 0 0 0 0 0 0 0 0 0 0 0 0 0 0 0 0
-0 -0 0 0 0 0 0 0 0 0 0 0 0 0 0 0 0 0 0 0 0 0 0 0 0 0 0
-0 -0 -0 0 0 0 0 0 0 0 0 0 0 0 0 0 0 0 0 0 0 0 0 0 0 0 0
-0 -0 0 0 0 0 0 0 0 0 0 0 0 0 0 0 0 0 0 0 0 0 0 0 0 0 0
Wind_Speed_500mb
89 80 61 67 67 71 58 58 58 62 64 64 61 58 60 61 60 59 58 56 56 57 57 56 58 58 55
73 97 81 67 80 66 69 63 60 58 61 60 56 52 51 51 52 53 54 56 55 55 55 59 59 61 58
70 76 101 80 78 89 80 74 67 58 52 50 46 42 44 44 44 46 47 51 55 56 55 59 57 61 66
72 73 86 109 69 84 87 79 75 64 58 50 44 42 44 47 49 48 48 50 53 55 58 59 60 63 67
70 61 82 95 83 80 84 87 85 77 65 61 53 54 52 51 48 45 46 47 47 50 55 59 62 64 67
61 57 66 79 110 61 82 79 82 84 68 61 56 56 55 54 52 44 38 36 37 38 40 48 57 61 66
75 72 73 69 79 91 65 89 86 79 70 57 60 60 57 50 49 37 34 33 32 33 34 33 40 45 51
94 96 83 90 82 80 90 67 92 87 67 66 71 71 64 52 48 40 33 31 30 33 36 35 41 43 45
79 84 83 86 77 76 101 57 79 87 78 72 75 73 63 56 46 45 36 30 30 30 36 39 35 40 42
71 72 76 84 79 71 98 85 63 67 84 75 77 80 56 52 46 41 40 25 28 28 23 28 30 33 36
74 70 70 74 81 72 92 107 77 73 71 85 81 79 58 37 41 31 25 21 18 23 26 26 26 28 31
75 71 68 70 60 70 81 87 89 83 71 89 74 71 63 50 35 30 28 24 22 26 28 27 27 27 24
84 82 78 67 56 63 69 94 93 92 73 70 68 66 57 47 34 35 28 26 27 27 25 23 27 28 25
83 80 75 74 73 77 79 91 75 81 68 60 55 48 45 41 33 34 35 28 33 32 32 31 29 27 22
91 72 75 71 77 80 97 92 85 71 66 54 52 51 42 35 38 39 36 36 41 41 38 34 29 24 21
94 87 84 71 91 96 87 81 70 69 57 59 56 48 42 37 37 46 44 45 47 41 37 34 32 24 20
82 76 81 94 105 85 85 72 56 51 46 40 40 43 44 46 31 39 45 51 50 43 34 30 33 30 24
Wind_Direction_500mb
258 250 260 250 248 240 246 246 250 251 252 251 248 245 245 245 247 249 252 253 254 256 257 255 252 249 256
267 253 249 252 246 244 244 241 245 253 253 250 244 242 240 240 243 246 249 251 253 255 257 254 250 249 250
261 261 245 253 248 242 244 243 244 248 252 243 239 235 232 235 238 242 248 250 249 251 251 252 249 250 250
260 255 252 239 257 241 241 239 232 230 239 241 230 230 230 234 236 241 248 254 255 254 252 251 250 245 248
257 250 252 246 250 241 238 240 232 226 229 236 226 231 233 238 239 242 248 253 257 257 257 256 254 252 252
250 246 250 252 234 253 235 221 218 215 216 220 225 233 235 235 235 243 254 258 258 261 263 261 259 257 257
251 251 245 238 240 245 237 224 216 211 205 215 227 229 226 226 238 240 248 259 270 259 265 271 266 266 268
245 250 251 247 240 243 249 241 214 217 212 219 215 219 223 229 241 242 253 256 272 254 249 252 257 264 271
245 245 245 249 249 251 244 277 203 205 210 210 210 215 222 228 239 253 259 266 271 249 246 260 262 263 268
247 248 248 246 243 245 239 244 218 196 203 204 207 207 204 216 234 251 263 272 283 258 245 244 253 260 267
248 250 250 248 246 241 239 241 237 206 205 202 202 198 205 208 223 238 272 279 266 281 271 263 279 273 270
243 244 246 244 239 240 233 232 233 221 211 206 206 206 205 216 222 240 253 259 256 255 257 262 249 237 231
241 243 244 248 252 234 229 219 220 218 205 199 212 210 215 221 230 224 224 226 240 236 237 227 223 215 199
238 242 245 241 231 229 205 204 201 179 177 186 190 196 210 214 233 225 215 227 213 202 194 186 175 173 176
235 238 245 234 221 195 191 194 186 172 169 178 188 191 199 221 217 212 217 207 190 183 181 170 164 163 165
235 230 225 217 200 179 180 185 176 174 184 186 191 196 197 193 203 198 193 190 177 175 172 173 155 150 148
227 218 193 181 187 167 168 177 166 171 177 189 198 208 209 174 167 186 184 172 167 162 162 159 143 133 139
Wind_Speed_850mb
89 80 61 67 67 71 58 58 58 62 64 64 61 58 60 61 60 59 58 56 56 57 57 56 58 58 55
73 97 81 67 80 66 69 63 60 58 61 60 56 52 51 51 52 53 54 56 55 55 55 59 59 61 58
70 76 101 80 78 89 80 74 67 58 52 50 46 42 44 44 44 46 47 51 55 56 55 59 57 61 66
72 73 86 109 69 84 87 79 75 64 58 50 44 42 44 47 49 48 48 50 53 55 58 59 60 63 67
70 61 82 95 83 80 84 87 85 77 65 61 53 54 52 51 48 45 46 47 47 50 55 59 62 64 67
61 57 66 79 110 61 82 79 82 84 68 61 56 56 55 54 52 44 38 36 37 38 40 48 57 61 66
75 72 73 69 79 91 65 89 86 79 70 57 60 60 57 50 49 37 34 33 32 33 34 33 40 45 51
94 96 83 90 82 80 90 67 92 87 67 66 71 71 64 52 48 40 33 31 30 33 36 35 41 43 45
79 84 83 86 77 76 101 57 79 87 78 72 75 73 63 56 46 45 36 30 30 30 36 39 35 40 42
71 72 76 84 79 71 98 85 63 67 84 75 77 80 56 52 46 41 40 25 28 28 23 28 30 33 36
74 70 70 74 81 72 92 107 77 73 71 85 81 79 58 37 41 31 25 21 18 23 26 26 26 28 31
75 71 68 70 60 70 81 87 89 83 71 89 74 71 63 50 35 30 28 24 22 26 28 27 27 27 24
84 82 78 67 56 63 69 94 93 92 73 70 68 66 57 47 34 35 28 26 27 27 25 23 27 28 25
83 80 75 74 73 77 79 91 75 81 68 60 55 48 45 41 33 34 35 28 33 32 32 31 29 27 22
91 72 75 71 77 80 97 92 85 71 66 54 52 51 42 35 38 39 36 36 41 41 38 34 29 24 21
94 87 84 71 91 96 87 81 70 69 57 59 56 48 42 37 37 46 44 45 47 41 37 34 32 24 20
82 76 81 94 105 85 85 72 56 51 46 40 40 43 44 46 31 39 45 51 50 43 34 30 33 30 24
Wind_Direction_850mb
258 250 260 250 248 240 246 246 250 251 252 251 248 245 245 245 247 249 252 253 254 256 257 255 252 249 256
267 253 249 252 246 244 244 241 245 253 253 250 244 242 240 240 243 246 249 251 253 255 257 254 250 249 250
261 261 245 253 248 242 244 243 244 248 252 243 239 235 232 235 238 242 248 250 249 251 251 252 249 250 250
260 255 252 239 257 241 241 239 232 230 239 241 230 230 230 234 236 241 248 254 255 254 252 251 250 245 248
257 250 252 246 250 241 238 240 232 226 229 236 226 231 233 238 239 242 248 253 257 257 257 256 254 252 252
250 246 250 252 234 253 235 221 218 215 216 220 225 233 235 235 235 243 254 258 258 261 263 261 259 257 257
251 251 245 238 240 245 237 224 216 211 205 215 227 229 226 226 238 240 248 259 270 259 265 271 266 266 268
245 250 251 247 240 243 249 241 214 217 212 219 215 219 223 229 241 242 253 256 272 254 249 252 257 264 271
245 245 245 249 249 251 244 277 203 205 210 210 210 215 222 228 239 253 259 266 271 249 246 260 262 263 268
247 248 248 246 243 245 239 244 218 196 203 204 207 207 204 216 234 251 263 272 283 258 245 244 253 260 267
248 250 250 248 246 241 239 241 237 206 205 202 202 198 205 208 223 238 272 279 266 281 271 263 279 273 270
243 244 246 244 239 240 233 232 233 221 211 206 206 206 205 216 222 240 253 259 256 255 257 262 249 237 231
241 243 244 248 252 234 229 219 220 218 205 199 212 210 215 221 230 224 224 226 240 236 237 227 223 215 199
238 242 245 241 231 229 205 204 201 179 177 186 190 196 210 214 233 225 215 227 213 202 194 186 175 173 176
235 238 245 234 221 195 191 194 186 172 169 178 188 191 199 221 217 212 217 207 190 183 181 170 164 163 165
235 230 225 217 200 179 180 185 176 174 184 186 191 196 197 193 203 198 193 190 177 175 172 173 155 150 148
227 218 193 181 187 167 168 177 166 171 177 189 198 208 209 174 167 186 184 172 167 162 162 159 143 133 139